Regional Weather Roundup
Issued by NWS

Home | Current Version | Previous Version | Graphics & Text | Print | Product List | Glossary On
Versions: 1 2 3 4 5 6 7 8 9 10 11 12 13 14 15 16 17 18 19 20 21 22 23 24 25 26 27 28 29 30 31 32 33 34 35 36 37 38 39 40 41 42 43 44 45 46 47 48 49 50
000
ASUS45 KBOU 142007
RWRCO

WEATHER ROUNDUP FOR COLORADO
NATIONAL WEATHER SERVICE DENVER/BOULDER CO
100 PM MST SUN FEB 14 2016

NOTE: "FAIR" INDICATES FEW OR NO CLOUDS BELOW 12000 FEET WITH NO
SIGNIFICANT WEATHER AND/OR OBSTRUCTIONS TO VISIBILITY.

COZ001>005-013-030-031-142100-
...NORTHWEST COLORADO...

CITY           SKY/WX    TMP DP  RH WIND       PRES   REMARKS
CRAIG          LGT SNOW  27  24  89 SE5       30.11F FOG     WCI  22
HAYDEN         CLOUDY    27  21  80 NE3       30.10F VSB 3/4
MEEKER         CLOUDY    33  21  61 E3        30.10F
MOUNT WERNER   NOT AVBL
STEAMBOAT SPGS CLOUDY    29  26  88 E6        30.10F VSB 3/4 WCI  23
WALDEN         PTSUNNY   30  21  69 SW15      30.03F WCI  19
$$

COZ006>008-011-142100-
...WEST CENTRAL VALLEYS...

CITY           SKY/WX    TMP DP  RH WIND       PRES   REMARKS
GRAND JUNCTION FAIR      37  30  75 CALM      30.12F
MONTROSE       CLOUDY    41  26  55 VRB5      30.13F
EAGLE          CLOUDY    36  21  55 CALM      30.13R
RIFLE          CLOUDY    35  23  61 CALM      30.15S
DELTA          CLOUDY    42  29  60 CALM      30.13F
NUCLA          FAIR      41  25  52 CALM      30.16F
$$

COZ017>023-064>068-142100-
...SOUTHWEST COLORADO...

CITY           SKY/WX    TMP DP  RH WIND       PRES   REMARKS
DURANGO        FAIR      37  23  56 NE7       30.08F
CORTEZ         PTSUNNY   45  25  45 W5        30.13F
PAGOSA SPRINGS FAIR      43  14  31 S6        30.08F
TELLURIDE      NOT AVBL
WOLF CREEK PAS FAIR      28   9  43 SW9G21    30.16S WCI  20
$$

COZ009-010-012-014-032>034-037-058>063-142100-
...CENTRAL COLORADO...

CITY           SKY/WX    TMP DP  RH WIND       PRES   REMARKS
ASPEN          CLOUDY    36  19  50 N14G29    30.11R
BUENA VISTA    PTSUNNY   43  13  29 W15G30    29.99S
COPPER MTN     SNOW      21  16  79 NW14G20   30.08F VSB 1/4 WCI   8
BERTHOUD PASS  LGT SNOW  12   1  62 MISG      30.05F VSB 3/4
COTTONWOOD PAS FAIR      36   9  32 SW47G62   29.95F
GUNNISON       PTSUNNY   19   5  53 SE3       30.16F
KREMMLING      CLOUDY    32  25  74 CALM      30.09F
LEADVILLE      LGT SNOW  24  17  74 NE7       30.09S WCI  16
MONARCH PASS   FAIR      23   9  54 W36G45    30.17F WCI   4
SALIDA         NOT AVBL
SUNLIGHT       HVY SNOW  27  23  86 SW3       30.15F VSB 1/4
WILKERSON PASS FAIR      28  12  50 W17G35    29.99S WCI  16
$$

COZ069>075-142100-
...SAN LUIS VALLEY/SANGRE DE CRISTO MOUNTAINS...

CITY           SKY/WX    TMP DP  RH WIND       PRES   REMARKS
ALAMOSA        FAIR      46   9  22 S3        30.00F
LA VETA PASS   FAIR      34   9  35 S13       29.97S WCI  25
SAGUACHE       FAIR      45  14  29 NW44G51   29.98S
$$

COZ035-036-038>040-142100-
...NORTHERN COLORADO FRONT RANGE...

CITY           SKY/WX    TMP DP  RH WIND       PRES   REMARKS
DENVER INTL AP PTSUNNY   48  17  29 CALM      29.87F
DMNS CITY PARK   N/A     50  17  27 N13       29.86F
AURORA         PTSUNNY   47  20  33 E5        29.87F
FRONT RANGE AP PTSUNNY   46  19  34 MISG      29.87F
ERIE MUNI ARPT FAIR      50  19  29 CALM      29.85F
BOULDER MUN AP FAIR      52  19  28 SE12G22   29.83F
CENTENNIAL     PTSUNNY   48  19  31 N13       29.86F
BROOMFIELD     PTSUNNY   50  18  27 W23G29    29.86F
FORT COLLINS   FAIR      48  25  40 S5        29.86S
LONGMONT       FAIR      52  22  30 W14G31    29.85F
$$

COZ041-046-047-076>085-087-088-142100-
...PIKES PEAK/PALMER DIVIDE AND SOUTHERN FOOTHILLS...

CITY           SKY/WX    TMP DP  RH WIND       PRES   REMARKS
COLO. SPRINGS  PTSUNNY   47  23  38 VRB3      29.90F
A. F. ACADEMY  FAIR      45  23  42 CALM      29.88F
SCHRIEVER AFB  FAIR      43  21  42 W6G12     29.90F
ELLICOTT       LGT RAIN N/A N/A N/A W6        29.89S
FALCON         FAIR      50  21  31 NE7       29.90F
FORT CARSON    FAIR      43  25  49 N10       29.88F
LIMON          FAIR      45  26  47 SE5       29.89F
MONUMENT HILL  FAIR      41  21  45 N8        29.91F
TRINIDAD       FAIR      59  15  18 SE5       29.84F
$$

COZ042>045-048>051-090-091-142100-
...NORTHEAST COLORADO...

CITY           SKY/WX    TMP DP  RH WIND       PRES   REMARKS
GREELEY ARPT   FAIR      43  30  61 SW8       29.87S
AKRON          FAIR      43  30  60 SW8       29.85F
BURLINGTON     FAIR      46  26  45 SW12      29.90F
WRAY           FAIR      49  20  32 S14       29.86F
STERLING       FAIR      50  25  37 W8        29.84S
HOLYOKE        FAIR      50  30  46 SW7       29.85F
FORT MORGAN    FAIR      44  28  54 W3        29.87S
$$

COZ086-089-092>099-142100-
...SOUTHEAST COLORADO...

CITY           SKY/WX    TMP DP  RH WIND       PRES   REMARKS
PUEBLO         FAIR      50  25  37 VRB6      29.87F
LA JUNTA       FAIR      52  21  29 E12       29.86F
LAMAR          FAIR      51  21  30 SE10G20   29.88F
SPRINGFIELD      N/A     50  18  28 S14       29.89F
$$



USA.gov is the U.S. government's official web portal to all federal, state and local government web resources and services.